• In Deutschland
  • Länderverzeichnis
  • Für 7 Tage
  • Wassertemperatur
  • Satellitenkarten
  • Wetterkarte
  • Widgets
  • user-avatar
    Anmelden

    Stündliche Wetter Winnenden

    Heute, 19 Februar, Montag

    Zeit Temperatur Niederschläge Wind Luftdruck Luftfeuchtigkeit
    00:00 -1°C° 0 mm 1 m/S 741 mmHg 88%
    01:00 -3°C° 0 mm 2 m/S 741 mmHg 92%
    02:00 -4°C° 0 mm 2 m/S 740 mmHg 92%
    03:00 -4°C° 0 mm 2 m/S 740 mmHg 92%
    04:00 -2°C° 0 mm 1 m/S 740 mmHg 93%
    05:00 -2°C° 0 mm 1 m/S 739 mmHg 93%
    06:00 -2°C° 0 mm 1 m/S 739 mmHg 93%
    07:00 -3°C° 0 mm 1 m/S 739 mmHg 93%
    08:00 -2°C° 0 mm 1 m/S 739 mmHg 89%
    09:00 -1°C° 0 mm 1 m/S 739 mmHg 85%
    10:00 0°C° 0 mm 1 m/S 738 mmHg 81%
    11:00 +1°C° 0 mm 1 m/S 738 mmHg 77%
    12:00 +2°C° 0 mm 1 m/S 738 mmHg 73%
    13:00 +3°C° 0 mm 1 m/S 738 mmHg 69%
    14:00 +4°C° 0 mm 1 m/S 737 mmHg 69%
    15:00 +4°C° 0 mm 1 m/S 737 mmHg 69%
    16:00 +4°C° 0 mm 1 m/S 736 mmHg 69%
    17:00 +3°C° 0 mm 1 m/S 736 mmHg 74%
    18:00 +2°C° 0 mm 1 m/S 736 mmHg 78%
    19:00 +1°C° 0 mm 1 m/S 736 mmHg 83%
    20:00 0°C° 0 mm 0 m/S 736 mmHg 84%
    21:00 -1°C° 0 mm 0 m/S 736 mmHg 85%
    22:00 -1°C° 0 mm 0 m/S 736 mmHg 86%
    23:00 -1°C° 0 mm 0 m/S 736 mmHg 86%

    Morgen, 20 Februar, Dienstag

    Zeit Temperatur Niederschläge Wind Luftdruck Luftfeuchtigkeit
    00:00 -1°C° 0 mm 0 m/S 736 mmHg 86%
    01:00 -1°C° 0 mm 0 m/S 736 mmHg 87%
    02:00 -1°C° 0 mm 0 m/S 735 mmHg 87%
    03:00 -2°C° 0 mm 0 m/S 735 mmHg 87%
    04:00 -2°C° 0 mm 0 m/S 735 mmHg 87%
    05:00 -2°C° 0 mm 0 m/S 735 mmHg 88%
    06:00 -2°C° 0 mm 0 m/S 735 mmHg 88%
    07:00 -2°C° 0 mm 0 m/S 735 mmHg 88%
    08:00 0°C° 0 mm 1 m/S 735 mmHg 83%
    09:00 +1°C° 0 mm 1 m/S 735 mmHg 78%
    10:00 +2°C° 0 mm 1 m/S 735 mmHg 73%
    11:00 +3°C° 0 mm 1 m/S 735 mmHg 69%
    12:00 +3°C° 0 mm 1 m/S 735 mmHg 65%
    13:00 +3°C° 0 mm 2 m/S 735 mmHg 61%
    14:00 +3°C° 0 mm 2 m/S 735 mmHg 62%
    15:00 +3°C° 0 mm 2 m/S 735 mmHg 63%
    16:00 +3°C° 0 mm 2 m/S 735 mmHg 64%
    17:00 +2°C° 0 mm 2 m/S 735 mmHg 69%
    18:00 +1°C° 0 mm 2 m/S 736 mmHg 75%
    19:00 -1°C° 0 mm 2 m/S 736 mmHg 80%
    20:00 -1°C° 0 mm 2 m/S 736 mmHg 82%
    21:00 +1°C° 0 mm 1 m/S 737 mmHg 84%
    22:00 +1°C° 0 mm 1 m/S 737 mmHg 85%
    23:00 -2°C° 0 mm 2 m/S 737 mmHg 87%

    übermorgen, 21 Februar, Mittwoch

    Zeit Temperatur Niederschläge Wind Luftdruck Luftfeuchtigkeit
    00:00 -2°C° 0 mm 2 m/S 737 mmHg 88%
    01:00 -2°C° 0 mm 2 m/S 737 mmHg 89%
    02:00 -2°C° 0 mm 2 m/S 737 mmHg 91%
    03:00 -3°C° 0 mm 2 m/S 738 mmHg 92%
    04:00 -3°C° 0 mm 2 m/S 738 mmHg 94%
    05:00 -3°C° 0 mm 2 m/S 738 mmHg 93%
    06:00 -3°C° 0 mm 2 m/S 738 mmHg 92%
    07:00 -3°C° 0 mm 2 m/S 738 mmHg 91%
    08:00 -2°C° 0 mm 2 m/S 738 mmHg 85%
    09:00 -1°C° 0 mm 3 m/S 738 mmHg 79%
    10:00 -1°C° 0 mm 3 m/S 739 mmHg 73%
    11:00 0°C° 0 mm 3 m/S 738 mmHg 68%
    12:00 +1°C° 0 mm 3 m/S 738 mmHg 63%
    13:00 +2°C° 0 mm 3 m/S 738 mmHg 59%
    14:00 +3°C° 0 mm 3 m/S 738 mmHg 58%
    15:00 +3°C° 0 mm 4 m/S 737 mmHg 57%
    16:00 +3°C° 0 mm 4 m/S 737 mmHg 57%
    17:00 +1°C° 0 mm 3 m/S 737 mmHg 62%
    18:00 0°C° 0 mm 3 m/S 737 mmHg 68%
    19:00 -1°C° 0 mm 3 m/S 737 mmHg 73%
    20:00 -2°C° 0 mm 3 m/S 737 mmHg 74%
    21:00 -2°C° 0 mm 3 m/S 737 mmHg 74%
    22:00 -2°C° 0 mm 3 m/S 737 mmHg 75%
    23:00 -3°C° 0 mm 4 m/S 737 mmHg 75%

    22 Februar, Donnerstag

    Zeit Temperatur Niederschläge Wind Luftdruck Luftfeuchtigkeit
    00:00 -3°C° 0 mm 4 m/S 737 mmHg 75%
    01:00 -4°C° 0 mm 4 m/S 736 mmHg 75%
    02:00 -4°C° 0 mm 4 m/S 736 mmHg 75%
    03:00 -4°C° 0 mm 4 m/S 736 mmHg 74%
    04:00 -4°C° 0 mm 4 m/S 735 mmHg 74%
    05:00 -5°C° 0 mm 5 m/S 735 mmHg 73%
    06:00 -5°C° 0 mm 5 m/S 735 mmHg 72%
    07:00 -5°C° 0 mm 5 m/S 735 mmHg 71%
    08:00 -5°C° 0 mm 6 m/S 735 mmHg 68%
    09:00 -4°C° 0 mm 6 m/S 735 mmHg 65%
    10:00 -3°C° 0 mm 6 m/S 735 mmHg 62%
    11:00 -2°C° 0 mm 7 m/S 735 mmHg 60%
    12:00 -2°C° 0 mm 7 m/S 735 mmHg 57%
    13:00 -1°C° 0 mm 7 m/S 734 mmHg 54%
    14:00 -1°C° 0 mm 7 m/S 734 mmHg 55%
    15:00 -1°C° 0 mm 7 m/S 734 mmHg 55%
    16:00 -1°C° 0 mm 6 m/S 734 mmHg 56%
    17:00 -2°C° 0 mm 6 m/S 734 mmHg 59%
    18:00 -2°C° 0 mm 6 m/S 734 mmHg 62%
    19:00 -3°C° 0 mm 6 m/S 734 mmHg 64%
    20:00 -3°C° 0 mm 6 m/S 734 mmHg 65%
    21:00 -4°C° 0 mm 6 m/S 734 mmHg 66%
    22:00 -4°C° 0 mm 6 m/S 734 mmHg 66%
    23:00 -4°C° 0 mm 6 m/S 734 mmHg 67%

    23 Februar, Freitag

    Zeit Temperatur Niederschläge Wind Luftdruck Luftfeuchtigkeit
    00:00 -4°C° 0 mm 6 m/S 734 mmHg 67%
    01:00 -5°C° 0 mm 6 m/S 734 mmHg 68%
    02:00 -5°C° 0 mm 5 m/S 734 mmHg 68%
    03:00 -5°C° 0 mm 5 m/S 734 mmHg 69%
    04:00 -5°C° 0 mm 5 m/S 734 mmHg 69%
    05:00 -5°C° 0 mm 5 m/S 734 mmHg 69%
    06:00 -5°C° 0 mm 5 m/S 734 mmHg 70%
    07:00 -5°C° 0 mm 5 m/S 734 mmHg 70%
    08:00 -4°C° 0 mm 6 m/S 735 mmHg 67%
    09:00 -4°C° 0 mm 6 m/S 735 mmHg 65%
    10:00 -3°C° 0 mm 6 m/S 735 mmHg 63%
    11:00 -2°C° 0 mm 6 m/S 735 mmHg 60%
    12:00 -1°C° 0 mm 6 m/S 735 mmHg 58%
    13:00 +1°C° 0 mm 6 m/S 735 mmHg 55%
    14:00 +1°C° 0 mm 6 m/S 735 mmHg 55%
    15:00 +1°C° 0 mm 6 m/S 735 mmHg 55%
    16:00 +1°C° 0 mm 6 m/S 735 mmHg 55%
    17:00 -1°C° 0 mm 6 m/S 736 mmHg 55%
    18:00 -2°C° 0 mm 6 m/S 736 mmHg 56%
    19:00 -3°C° 0 mm 6 m/S 736 mmHg 57%
    20:00 -4°C° 0 mm 6 m/S 737 mmHg 57%
    21:00 -4°C° 0 mm 6 m/S 737 mmHg 57%
    22:00 -5°C° 0 mm 6 m/S 738 mmHg 57%
    23:00 -5°C° 0 mm 6 m/S 738 mmHg 56%

    24 Februar, Samstag

    Zeit Temperatur Niederschläge Wind Luftdruck Luftfeuchtigkeit
    00:00 -6°C° 0 mm 6 m/S 738 mmHg 55%
    01:00 -6°C° 0 mm 6 m/S 738 mmHg 54%
    02:00 -6°C° 0 mm 6 m/S 739 mmHg 52%
    03:00 -6°C° 0 mm 6 m/S 739 mmHg 49%
    04:00 -8°C° 0 mm 6 m/S 739 mmHg 47%
    05:00 -8°C° 0 mm 6 m/S 740 mmHg 45%
    06:00 -8°C° 0 mm 6 m/S 740 mmHg 43%
    07:00 -8°C° 0 mm 6 m/S 741 mmHg 42%
    08:00 -8°C° 0 mm 6 m/S 741 mmHg 39%
    09:00 -6°C° 0 mm 6 m/S 741 mmHg 36%
    10:00 -6°C° 0 mm 7 m/S 742 mmHg 34%
    11:00 -4°C° 0 mm 7 m/S 742 mmHg 32%
    12:00 -3°C° 0 mm 7 m/S 742 mmHg 30%
    13:00 -3°C° 0 mm 7 m/S 742 mmHg 28%
    14:00 -3°C° 0 mm 6 m/S 742 mmHg 29%
    15:00 -3°C° 0 mm 6 m/S 741 mmHg 29%
    16:00 -3°C° 0 mm 6 m/S 741 mmHg 30%
    17:00 -4°C° 0 mm 6 m/S 741 mmHg 33%
    18:00 -4°C° 0 mm 5 m/S 742 mmHg 37%
    19:00 -5°C° 0 mm 5 m/S 742 mmHg 40%
    20:00 -6°C° 0 mm 5 m/S 742 mmHg 43%
    21:00 -6°C° 0 mm 5 m/S 742 mmHg 45%
    22:00 -7°C° 0 mm 5 m/S 742 mmHg 48%
    23:00 -7°C° 0 mm 5 m/S 742 mmHg 49%
    Mehr zeigen